Showing default

PERSEUS M2, 40037

Orbit data source: Space-Track

PERSEUS M2, 40037 is a payload satellite owned by Canopus Sys (CIS) in SSO that was launched on Thu, 19 Jun 2014 UTC via a DNEPR launch vehicle from the Orenburg, Russia (OREN). Payload-class satellites include a variety of spacecraft equipped with specific instruments for various scientific and technological missions. These include communications satellites like Starlink; space stations such as the ISS; scientific satellites like the Hubble; Earth observation satellites from companies like Planet Labs, Umbra, and HawkEye 360; GPS; miniature CubeSats for education and research; and military/defense satellites.

Loading next visibility...
Identifier
40037, 2014-033AD
Orbit
SSO
Country
Flag of CISCIS
Related business
None
Manufacturer
Canopus Sys
Mission
Operational Commercial Communications
Bus & Motor
CUBESAT 6U, Unknown motor
Mass
~10 kg wet, ~10 kg dry
Launch date (UTC)
2014-06-19 (12 years ago)
Launch vehicle
DNEPR
Launch site
Orenburg, Russia (OREN)
Object type
Payload
Rocket body
Debris
Shape & HBR
Box, 0.1 m
Radar Cross Section
0.105 m², Medium (>0.1 m² and < 1m²)

Expand to show TLE details & history
Last TLE update: 5 hours ago

TLE from 5 hours ago
0 PERSEUS M2
1 40037U 14033AD  26101.28418856  .00002719  00000-0  25190-3 0  9996
2 40037  97.9914  50.4975 0012407 153.3258 206.8603 14.95313547640788
Epoch: 2026-04-11T06:49Z
TLE epoch observation values (Epoch: 2026-04-11T06:49:13.891Z)
Latitude
-0°
Longitude
108.68392°
Altitude
592.146 km
Speed
7.56 km/s
True Right ascension
03h 21m 59s
True Declination
0° 00' 00"
Sunlit
Object was in daylight at epoch
Visualization orbit readout
Latitude
Unknown
Longitude
Unknown
Altitude
Unknown
Speed
Unknown
Apparent Right ascension
Unknown
Apparent Declination
Unknown
Sunlit
N/A
Visualization observer readout
Local Sidereal Time
18:33:54
Azimuth
Unknown
Elevation
Unknown
Doppler factor
Unknown
Orbital elements
Apogee altitude
587.055 km
Perigee altitude
569.793 km
Semi-major axis
6,956.561 km
Eccentricity
0.00124
Inclination
97.9914°
RAAN
50.4975°
Arg. of periapsis
153.3258°
True anomaly
206.79615°
Mean anomaly
206.8603°
Eccentric anomaly
206.82822°
Mean motion
3.74069 °/min
Orbital period
96.24 mins
BSTAR
0.0002519
Loading maneuver chart data...
Computing Atmospheric mass density...
Loading historical data...
Loading historical data...
Loading historical data...
Loading historical data...
Loading historical data...
Loading historical data...
Loading historical data...

Documentation

Showing up to 5 results
|